カタログに戻る

COSMOS 312

運用中軍事LEO
NORAD 4254·PAYLOAD·🇷🇺 Russia

打ち上げ Nov 24, 1969 から Plesetsk Cosmodrome

Loading…

次のパス (今後24時間)

TLE

最新Source: Space-Track

元期: Sep 14, 2026, 14:05 UTC

1 04254U 69103A   26257.58722537 -.00000005  00000-0  33460-4 0  9991
2 04254  74.0207 298.8748 0022552 161.3434   4.2802 13.27213848751504

AllMySatでCOSMOS 312をリアルタイム追跡

Download on the App Store